Regional Weather Roundup
Issued by NWS

Home | Current Version | Previous Version | Text Only | Print | Product List | Glossary On
Versions: 1 2 3 4 5 6 7 8 9 10 11 12 13 14 15 16 17 18 19 20 21 22 23 24 25 26 27 28 29 30 31 32 33 34 35 36 37 38 39 40 41 42 43 44 45 46 47 48 49 50
683
ASUS43 KMKX 220600
RWRWI

WISCONSIN REGIONAL WEATHER ROUNDUP
NATIONAL WEATHER SERVICE MILWAUKEE/SULLIVAN WI
1200 AM CST WED NOV 22 2017

NOTE: "FAIR" INDICATES FEW OR NO CLOUDS BELOW 12,000 FEET WITH NO
SIGNIFICANT WEATHER AND/OR OBSTRUCTIONS TO VISIBILITY.

WIZ001-002-006>008-014>016-023>028-220700-
NORTHWEST WISCONSIN

CITY           SKY/WX    TMP DP  RH WIND       PRES   REMARKS
SUPERIOR ARPT  CLOUDY    18  11  72 W5        30.30R WCI  11
6HR MIN TEMP:  15; 6HR MAX TEMP:  20;

ASHLAND        CLOUDY    20  11  68 W8        30.26R WCI  10
6HR MIN TEMP:  19; 6HR MAX TEMP:  22;

HAYWARD        CLOUDY    17   8  67 VRB3      30.26R
6HR MIN TEMP:  17; 6HR MAX TEMP:  23;

SIREN          CLOUDY    10   7  85 CALM      30.30R
CUMBERLAND     CLEAR     14   9  79 NW8       30.26R WCI   3
RICE LAKE      CLEAR     16   9  72 NW3       30.29R
CHETEK         CLEAR     17   9  71 NW5       30.28R WCI   9
LADYSMITH      CLOUDY    18  10  71 NW6       30.26R WCI  10
6HR MIN TEMP:  18; 6HR MAX TEMP:  23;

EAU CLAIRE     PTCLDY    17   8  67 N7        30.29R WCI   8
6HR MIN TEMP:  17; 6HR MAX TEMP:  24;

MENOMONIE      CLEAR     19   9  67 NW10      30.30R WCI   7
NEW RICHMOND   CLOUDY    17   9  71 N8        30.30R WCI   6
OSCEOLA        CLOUDY    17  10  71 NW3       30.34R
$$

WIZ003>005-009-010-017-018-220700-
NORTH CENTRAL WISCONSIN

CITY           SKY/WX    TMP DP  RH WIND       PRES   REMARKS
MANITOWISH WTR FLURRIES  17  12  82 W7        30.16R WCI   7
ARBOR VITAE    FLURRIES  19  13  78 NW6       30.15S WCI  11
WOODRUFF       FLURRIES  19  13  78 NW6       30.15S WCI  11
RHINELANDER    CLOUDY    19  12  74 NW9       30.17R WCI   8
6HR MIN TEMP:  19; 6HR MAX TEMP:  21; 6HR PCP: TRACE;

EAGLE RIVER    FLURRIES  19  13  77 NW6       30.14R WCI  11
6HR MIN TEMP:  19; 6HR MAX TEMP:  20;

LAND O LAKES   FLURRIES  20  13  76 NW8       30.15R WCI  10
PHILLIPS       CLOUDY    16   9  74 NW3       30.21R
6HR MIN TEMP:  16; 6HR MAX TEMP:  19;

TOMAHAWK       FLURRIES  17  10  74 NW8       30.19R WCI   7
MEDFORD        FLURRIES  17  10  73 N8        30.20R WCI   7
MERRILL        FLURRIES  19  10  69 N9        30.22R WCI   8
6HR MIN TEMP:  19; 6HR MAX TEMP:  21;

$$

WIZ029-030-035-036-043>047-220700-
CENTRAL WISCONSIN

CITY           SKY/WX    TMP DP  RH WIND       PRES   REMARKS
WAUSAU         CLOUDY    20  11  68 NW7       30.20R WCI  11
6HR MIN TEMP:  20; 6HR MAX TEMP:  22;

MOSINEE        CLOUDY    19  12  73 NW7       30.21  WCI  10
MARSHFIELD     CLEAR     17   9  70 N9        30.21R WCI   6
6HR MIN TEMP:  15; 6HR MAX TEMP:  22;

STEVENS POINT  CLEAR     19   9  65 NW3       30.22R
WAUPACA        CLEAR     23  12  62 W5        30.22R WCI  17
WAUTOMA        CLEAR     18  11  74 W3        30.24R
6HR MIN TEMP:  17; 6HR MAX TEMP:  26;

WISC RAPIDS    CLEAR     18  10  71 N5        30.24R WCI  11
6HR MIN TEMP:  17; 6HR MAX TEMP:  24;

CAMP DOUGLAS   CLEAR     13   9  81 W7        30.25R WCI   3
6HR MIN TEMP:  13; 6HR MAX TEMP:  24;

$$

WIZ011>013-019>022-031-037>040-048>050-220700-
NORTHEAST WISCONSIN

CITY           SKY/WX    TMP DP  RH WIND       PRES   REMARKS
ANTIGO         CLOUDY    19  11  69 N12       30.16R WCI   7
SHAWANO        PTCLDY    22  13  68 W5        30.20R WCI  16
6HR MIN TEMP:  22; 6HR MAX TEMP:  27;

OCONTO         CLOUDY    25  13  60 N6        30.19R WCI  18
STURGEON BAY   CLOUDY    25  13  60 NW17      30.19R WCI  12
6HR MIN TEMP:  24; 6HR MAX TEMP:  27; 6HR PCP: TRACE;

GREEN BAY      CLOUDY    25  14  63 NW8       30.20R WCI  16
6HR MIN TEMP:  25; 6HR MAX TEMP:  28;

MANITOWOC      CLOUDY    25  13  60 NW12      30.21R WCI  14
6HR MIN TEMP:  25; 6HR MAX TEMP:  30; 6HR PCP: TRACE;

APPLETON       PTCLDY    19  10  68 W6        30.19R WCI  11
CLINTONVILLE   PTCLDY    19  10  68 W3        30.20R
OSHKOSH        CLEAR     20  11  68 W3        30.21R
6HR MIN TEMP:  20; 6HR MAX TEMP:  29;

$$

WIZ032>034-041-042-053>061-220700-
SOUTHWEST WISCONSIN

CITY           SKY/WX    TMP DP  RH WIND       PRES   REMARKS
LA CROSSE      CLEAR     25  12  58 NW13      30.29R WCI  14
6HR MIN TEMP:  24; 6HR MAX TEMP:  28;

SPARTA         CLEAR     17  11  80 W3        30.28R
VIROQUA        CLEAR     19  15  82 NW6       30.25R WCI  11
6HR MIN TEMP:  19; 6HR MAX TEMP:  25;

BOSCOBEL       CLEAR     22  12  65 CALM      30.29R
6HR MIN TEMP:  22; 6HR MAX TEMP:  29;

PRAIRIE DU CHI CLEAR     22  12  66 W7        30.31R WCI  13
PLATTEVILLE    CLEAR     21  15  78 W6        30.26R WCI  14
$$

WIZ056-057-062-063-064-067-068-220700-
SOUTH CENTRAL WISCONSIN

CITY           SKY/WX    TMP DP  RH WIND       PRES   REMARKS
REEDSBURG      CLEAR     20  12  68 W6        30.24R WCI  13
BARABOO/DELLS  CLEAR     21  12  68 NW6       30.22R WCI  13
LONE ROCK      NOT AVBL
MINERAL POINT  CLEAR     23  18  80 NW5       30.23R WCI  17
MADISON        CLEAR     22  13  68 W5        30.23R WCI  16
6HR MIN TEMP:  21; 6HR MAX TEMP:  27;

MIDDLETON      CLEAR     23  15  72 W6        30.24R WCI  15
WATERTOWN      CLEAR     21  15  78 W5        30.21S WCI  15
MONROE         CLEAR     23  14  68 W9        30.23R WCI  13
JANESVILLE     CLEAR     21  14  73 NW3       30.23R
$$

WIZ051-052-058>065-066-070>072-220700-
SOUTHEAST WISCONSIN

CITY           SKY/WX    TMP DP  RH WIND       PRES   REMARKS
MILWAUKEE      PTCLDY    27  14  58 NW9       30.21R WCI  18
6HR MIN TEMP:  27; 6HR MAX TEMP:  31;

WAUKESHA       CLEAR     21  12  68 NW7       30.22R WCI  13
MILWAUKEE/TIMM CLEAR     23  12  63 NW7       30.22R WCI  15
RACINE         CLEAR     25  14  63 NW9       30.22R WCI  15
6HR MIN TEMP:  25; 6HR MAX TEMP:  30;

BURLINGTON     CLEAR     24  19  82 NW6       30.21S WCI  17
KENOSHA        CLEAR     24  14  65 NW7       30.21R WCI  16
6HR MIN TEMP:  24; 6HR MAX TEMP:  30;

FOND DU LAC    FLURRIES  19  10  68 NW6       30.21R WCI  11
6HR MIN TEMP:  18; 6HR MAX TEMP:  29; 6HR PCP: TRACE;

SHEBOYGAN      MIX PCPN  22  15  75 W5        30.20R WCI  16
6HR MIN TEMP:  22; 6HR MAX TEMP:  30; 6HR PCP: TRACE;

WEST BEND      CLEAR     21  12  68 NW3       30.20R
JUNEAU         CLEAR     21  14  75 CALM      30.22R
$$

LSZ147-162-220700-
LAKE SUPERIOR

STATION/POSITION TIME  TEMP    WIND        PRES    WAVE
                       AIR SEA DIR/SP/G            HT/PER
                 (UTC) (F)     (DEG/KT/KT) (MB)    (FT/S)
DEVILS ISLAND    0500   23     300/ 15/ 20 1024.8R
SAXON HARBOR     0530   23     270/  9/ 15 1023.7R
$$

LMZ867-665-643>646-220700-
LAKE MICHIGAN

STATION/POSITION TIME  TEMP    WIND        PRES    WAVE
                       AIR SEA DIR/SP/G            HT/PER
                 (UTC) (F)     (DEG/KT/KT) (MB)    (FT/S)
N MID LAKE BUOY  0450   29 47  300/ 21/ 27 1020.6R   4/ 5
NORTHPORT PIER   0540   27     310/ 18/ 25 1021.3R
KEWAUNEE LAKESHO 0530   26     320/  5/ 10 1021.3R
SHEBOYGAN LAKESH 0500   26     320/ 11/ 13 1023.0R
PORT WASHINGTON  0540   25     330/  2/  8 1024.0R
MILWAUKEE LAKESH 0530   27     300/ 10/ 11   N/A
S MID LAKE BUOY  0450   32 47  340/ 17/ 21 1021.8R   6/ 7
KENOSHA   LAKESH 0500   26     300/  9/ 12 1022.7
$$

TC  - TEMPERATURE IN CELSIUS
VSB - VISIBILITY IN STATUTE MILES
WCI - WIND CHILL INDEX
HX  - HEAT INDEX





USA.gov is the U.S. government's official web portal to all federal, state and local government web resources and services.